Terminal Aerodrome Forecast
Issued by NWS

Home | Current Version | Previous Version | Text Only | Print | Product List | Glossary On
Versions: 1 2 3 4 5 6 7 8 9 10 11 12
446
FTUS42 TJSJ 221140
TAFJMZ
TAF
TJMZ 221140Z 2212/2312 00000KT P6SM SKC
     FM221450 26010KT P6SM VCSH SCT030
     FM222230 06005KT P6SM FEW025 SCT040
      AMD NOT SKED=

USA.gov is the U.S. government's official web portal to all federal, state and local government web resources and services.